Raton, NM

8:28 AM MDT on March 28, 2017 (GMT -0600)
Raton Municipal-Crews

Weather History for KRTN - May, 2013

Change the Weather History Date:

Wednesday, May 8, 2013

  Actual Average (KTAD) Record (KTAD)
Temperature  
Mean Temperature 56 °F -  
Max Temperature 71 °F 72 °F 90 °F (1956)
Min Temperature 43 °F 40 °F 30 °F (1984)
Degree Days  
Heating Degree Days 9    
Growing Degree Days 6 (Base 50)    
Moisture  
Dew Point 27 °F    
Average Humidity 36    
Maximum Humidity 65    
Minimum Humidity 11    
Precipitation  
Precipitation 0.00 in - - ()
Sea Level Pressure  
Sea Level Pressure 29.82 in    
Wind  
Wind Speed 12 mph (NNW)    
Max Wind Speed 22 mph    
Max Gust Speed 32 mph    
Visibility 10 miles    
Events      
Averages and records for this station are not official NWS values.
T = Trace of Precipitation, MM = Missing Value Source: NWS Daily Summary

Daily Weather History Graph

Daily Weather History Graph

Search for Another Location

Airport or City:

Trip Planner

Search our weather history database for the weather conditions in past years. The results will help you decide how hot, cold, wet, or windy it might be!

Date:

Astronomy

May. 08, 2013 Rise Set
Actual Time 5:56 AM MDT 7:52 PM MDT
Civil Twilight 5:28 AM MDT 8:21 PM MDT
Nautical Twilight 4:53 AM MDT 8:55 PM MDT
Astronomical Twilight 4:16 AM MDT 9:32 PM MDT
Moon 5:04 AM MDT (5/8) 6:54 PM MDT (5/8)
Length of Visible Light 14h 53m
Length of Day
13h 56m
Waning Crescent, 2% of the Moon is Illuminated
May 8
Waning Crescent
May 9
New
May 17
First Quarter
May 24
Full
May 31
Last Quarter

Hourly Weather History & Observations

Time (MDT) Temp. Windchill Dew Point Humidity Pressure Visibility Wind Dir Wind Speed Gust Speed Precip Events Conditions
12:53 AM 48.9 °F - 27.0 °F 43% 29.79 in 10.0 mi North 11.5 mph - N/A   Clear
1:53 AM 54.0 °F - 30.9 °F 41% 29.74 in 10.0 mi NNW 16.1 mph - N/A   Mostly Cloudy
2:53 AM 52.0 °F - 30.9 °F 45% 29.74 in 10.0 mi North 15.0 mph - N/A   Clear
3:53 AM 51.1 °F - 30.9 °F 46% 29.74 in 10.0 mi North 12.7 mph - N/A   Clear
4:53 AM 51.1 °F - 32.0 °F 48% 29.75 in 10.0 mi North 15.0 mph - N/A   Overcast
5:53 AM 48.9 °F - 34.0 °F 56% 29.77 in 10.0 mi North 15.0 mph - N/A   Partly Cloudy
6:53 AM 52.0 °F - 36.0 °F 54% 29.80 in 10.0 mi NNW 10.4 mph - N/A   Mostly Cloudy
7:53 AM 54.0 °F - 36.0 °F 51% 29.81 in 10.0 mi North 15.0 mph - N/A   Clear
8:53 AM 60.1 °F - 36.0 °F 41% 29.82 in 10.0 mi NNE 3.5 mph - N/A   Clear
9:53 AM 63.0 °F - 33.1 °F 33% 29.80 in 10.0 mi Variable 3.5 mph - N/A   Clear
10:53 AM 64.0 °F - 30.0 °F 28% 29.80 in 10.0 mi SW 10.4 mph - N/A   Scattered Clouds
11:53 AM 66.0 °F - 23.0 °F 20% 29.78 in 10.0 mi SW 10.4 mph 18.4 mph N/A   Scattered Clouds
12:53 PM 69.1 °F - 15.1 °F 13% 29.75 in 10.0 mi South 16.1 mph 21.9 mph N/A   Partly Cloudy
1:53 PM 63.0 °F - 19.9 °F 19% 29.77 in 10.0 mi WNW 12.7 mph 27.6 mph N/A   Overcast
2:00 PM 64.4 °F - 17.6 °F 16% 29.97 in 10.0 mi West 10.4 mph 24.2 mph N/A   Overcast
2:28 PM 69.8 °F - 15.8 °F 13% 29.95 in 10.0 mi SSW 12.7 mph 20.7 mph N/A   Clear
2:53 PM 64.9 °F - 19.0 °F 17% 29.73 in 10.0 mi SSE 17.3 mph 32.2 mph N/A   Clear
3:53 PM 64.9 °F - 15.1 °F 15% 29.71 in 10.0 mi SW 6.9 mph - N/A   Clear
4:24 PM 62.6 °F - 32.0 °F 32% 29.91 in 10.0 mi NNE 19.6 mph 29.9 mph N/A   Partly Cloudy
4:53 PM 64.0 °F - 27.0 °F 25% 29.72 in 10.0 mi North 13.8 mph - N/A   Partly Cloudy
5:53 PM 64.9 °F - 26.1 °F 23% 29.75 in 10.0 mi Variable 3.5 mph - N/A   Partly Cloudy
6:28 PM 66.2 °F - 8.6 °F 11% 29.95 in 10.0 mi WNW 12.7 mph 20.7 mph N/A   Scattered Clouds
6:53 PM 63.0 °F - 10.0 °F 13% 29.77 in 10.0 mi North 10.4 mph 19.6 mph N/A   Scattered Clouds
7:14 PM 59.0 °F - 33.8 °F 39% 29.98 in 10.0 mi NE 21.9 mph 28.8 mph N/A   Mostly Cloudy
7:53 PM 54.0 °F - 34.0 °F 47% 29.83 in 10.0 mi NE 15.0 mph - N/A   Mostly Cloudy
8:53 PM 48.9 °F - 35.1 °F 59% 29.86 in 10.0 mi NE 10.4 mph - N/A   Clear
9:53 PM 46.0 °F 41.0 °F 34.0 °F 63% 29.88 in 10.0 mi NNE 10.4 mph - N/A   Clear
10:53 PM 43.0 °F 37.2 °F 32.0 °F 65% 29.90 in 10.0 mi North 10.4 mph - N/A   Clear
11:53 PM 43.0 °F 38.2 °F 32.0 °F 65% 29.89 in 10.0 mi North 8.1 mph - N/A   Clear